owner,sensor,date,latitude,longitude,air_temperature,qcFlag 
TCOON,ioos:station:TCOON:031:1,2019-01-01T00:06:00Z,28.4073,-96.7122,13.2,11111222 
TCOON,ioos:station:TCOON:031:1,2019-01-01T00:18:00Z,28.4073,-96.7122,13.1,1111122 
TCOON,ioos:station:TCOON:031:1,2019-01-01T00:24:00Z,28.4073,-96.7122,13.0,11111222 
TCOON,ioos:station:TCOON:031:1,2019-01-01T00:30:00Z,28.4073,-96.7122,13.0,11111222 
TCOON,ioos:station:TCOON:031:1,2019-01-01T00:36:00Z,28.4073,-96.7122,13.0,11111222 
TCOON,ioos:station:TCOON:031:1,2019-01-01T00:42:00Z,28.4073,-96.7122,12.9,11111222 
TCOON,ioos:station:TCOON:031:1,2019-01-01T00:48:00Z,28.4073,-96.7122,12.9,11111222 
TCOON,ioos:station:TCOON:031:1,2019-01-01T00:54:00Z,28.4073,-96.7122,12.9,11111222 
TCOON,ioos:station:TCOON:031:1,2019-01-01T01:00:00Z,28.4073,-96.7122,12.8,11111222 
TCOON,ioos:station:TCOON:031:1,2019-01-01T01:06:00Z,28.4073,-96.7122,12.8,11111222 
TCOON,ioos:station:TCOON:031:1,2019-01-01T01:12:00Z,28.4073,-96.7122,12.6,11111222 
TCOON,ioos:station:TCOON:031:1,2019-01-01T01:18:00Z,28.4073,-96.7122,12.6,1111122 
TCOON,ioos:station:TCOON:031:1,2019-01-01T01:24:00Z,28.4073,-96.7122,12.5,11111222 
TCOON,ioos:station:TCOON:031:1,2019-01-01T01:30:00Z,28.4073,-96.7122,11.4,11111222 
TCOON,ioos:station:TCOON:031:1,2019-01-01T01:36:00Z,28.4073,-96.7122,11.2,11111222 
TCOON,ioos:station:TCOON:031:1,2019-01-01T01:42:00Z,28.4073,-96.7122,11.2,11111222 
TCOON,ioos:station:TCOON:031:1,2019-01-01T01:48:00Z,28.4073,-96.7122,11.3,11111222 
TCOON,ioos:station:TCOON:031:1,2019-01-01T01:54:00Z,28.4073,-96.7122,11.3,11111222 
TCOON,ioos:station:TCOON:031:1,2019-01-01T02:00:00Z,28.4073,-96.7122,11.3,11111222 
TCOON,ioos:station:TCOON:031:1,2019-01-01T02:06:00Z,28.4073,-96.7122,11.1,11111222 
TCOON,ioos:station:TCOON:031:1,2019-01-01T02:12:00Z,28.4073,-96.7122,11.0,11111222 
TCOON,ioos:station:TCOON:031:1,2019-01-01T02:18:00Z,28.4073,-96.7122,11.0,1111122 
TCOON,ioos:station:TCOON:031:1,2019-01-01T02:24:00Z,28.4073,-96.7122,11.0,11111222 
TCOON,ioos:station:TCOON:031:1,2019-01-01T02:30:00Z,28.4073,-96.7122,11.1,11111222 
TCOON,ioos:station:TCOON:031:1,2019-01-01T02:36:00Z,28.4073,-96.7122,11.0,11111222 
TCOON,ioos:station:TCOON:031:1,2019-01-01T02:42:00Z,28.4073,-96.7122,10.7,11111222 
TCOON,ioos:station:TCOON:031:1,2019-01-01T02:48:00Z,28.4073,-96.7122,10.5,11111222 
TCOON,ioos:station:TCOON:031:1,2019-01-01T02:54:00Z,28.4073,-96.7122,10.5,11111222 
TCOON,ioos:station:TCOON:031:1,2019-01-01T03:00:00Z,28.4073,-96.7122,10.5,11111222 
TCOON,ioos:station:TCOON:031:1,2019-01-01T03:06:00Z,28.4073,-96.7122,10.8,11111222 
TCOON,ioos:station:TCOON:031:1,2019-01-01T03:12:00Z,28.4073,-96.7122,10.7,11111222 
TCOON,ioos:station:TCOON:031:1,2019-01-01T03:18:00Z,28.4073,-96.7122,10.7,1111122 
TCOON,ioos:station:TCOON:031:1,2019-01-01T03:24:00Z,28.4073,-96.7122,10.6,11111222 
TCOON,ioos:station:TCOON:031:1,2019-01-01T03:30:00Z,28.4073,-96.7122,10.4,11111222 
TCOON,ioos:station:TCOON:031:1,2019-01-01T03:36:00Z,28.4073,-96.7122,10.4,11111222 
TCOON,ioos:station:TCOON:031:1,2019-01-01T03:42:00Z,28.4073,-96.7122,10.4,11111222 
TCOON,ioos:station:TCOON:031:1,2019-01-01T03:48:00Z,28.4073,-96.7122,10.5,11111222 
TCOON,ioos:station:TCOON:031:1,2019-01-01T03:54:00Z,28.4073,-96.7122,10.4,11111222 
TCOON,ioos:station:TCOON:031:1,2019-01-01T04:00:00Z,28.4073,-96.7122,10.6,11111222 
TCOON,ioos:station:TCOON:031:1,2019-01-01T04:06:00Z,28.4073,-96.7122,10.6,11111222 
TCOON,ioos:station:TCOON:031:1,2019-01-01T04:12:00Z,28.4073,-96.7122,10.7,11111222 
TCOON,ioos:station:TCOON:031:1,2019-01-01T04:18:00Z,28.4073,-96.7122,10.7,11111222 
TCOON,ioos:station:TCOON:031:1,2019-01-01T04:24:00Z,28.4073,-96.7122,10.7,1111122 
TCOON,ioos:station:TCOON:031:1,2019-01-01T04:30:00Z,28.4073,-96.7122,10.7,11111222 
TCOON,ioos:station:TCOON:031:1,2019-01-01T04:36:00Z,28.4073,-96.7122,10.7,11111222 
TCOON,ioos:station:TCOON:031:1,2019-01-01T04:42:00Z,28.4073,-96.7122,10.7,11111222 
TCOON,ioos:station:TCOON:031:1,2019-01-01T04:48:00Z,28.4073,-96.7122,10.7,11111222 
TCOON,ioos:station:TCOON:031:1,2019-01-01T04:54:00Z,28.4073,-96.7122,10.8,11111222 
TCOON,ioos:station:TCOON:031:1,2019-01-01T05:00:00Z,28.4073,-96.7122,10.7,11111222 
TCOON,ioos:station:TCOON:031:1,2019-01-01T05:06:00Z,28.4073,-96.7122,10.6,11111222 
TCOON,ioos:station:TCOON:031:1,2019-01-01T05:12:00Z,28.4073,-96.7122,10.6,11111222 
TCOON,ioos:station:TCOON:031:1,2019-01-01T05:18:00Z,28.4073,-96.7122,10.6,1111122 
TCOON,ioos:station:TCOON:031:1,2019-01-01T05:24:00Z,28.4073,-96.7122,10.9,11111222 
TCOON,ioos:station:TCOON:031:1,2019-01-01T05:36:00Z,28.4073,-96.7122,10.5,11111222 
TCOON,ioos:station:TCOON:031:1,2019-01-01T05:42:00Z,28.4073,-96.7122,10.7,11111222 
TCOON,ioos:station:TCOON:031:1,2019-01-01T05:54:00Z,28.4073,-96.7122,10.5,11111222 
TCOON,ioos:station:TCOON:031:1,2019-01-01T06:00:00Z,28.4073,-96.7122,10.7,11111222 
TCOON,ioos:station:TCOON:031:1,2019-01-01T06:06:00Z,28.4073,-96.7122,10.6,11111222 
TCOON,ioos:station:TCOON:031:1,2019-01-01T06:12:00Z,28.4073,-96.7122,10.4,11111222 
TCOON,ioos:station:TCOON:031:1,2019-01-01T06:18:00Z,28.4073,-96.7122,10.4,1111122 
TCOON,ioos:station:TCOON:031:1,2019-01-01T06:24:00Z,28.4073,-96.7122,10.6,11111222 
TCOON,ioos:station:TCOON:031:1,2019-01-01T06:30:00Z,28.4073,-96.7122,10.5,11111222 
TCOON,ioos:station:TCOON:031:1,2019-01-01T06:36:00Z,28.4073,-96.7122,10.5,11111222 
TCOON,ioos:station:TCOON:031:1,2019-01-01T06:42:00Z,28.4073,-96.7122,10.4,11111222 
TCOON,ioos:station:TCOON:031:1,2019-01-01T06:48:00Z,28.4073,-96.7122,10.2,11111222 
TCOON,ioos:station:TCOON:031:1,2019-01-01T06:54:00Z,28.4073,-96.7122,9.6,11111222 
TCOON,ioos:station:TCOON:031:1,2019-01-01T07:00:00Z,28.4073,-96.7122,9.6,11111222 
TCOON,ioos:station:TCOON:031:1,2019-01-01T07:06:00Z,28.4073,-96.7122,9.3,11111222 
TCOON,ioos:station:TCOON:031:1,2019-01-01T07:12:00Z,28.4073,-96.7122,9.2,11111222 
TCOON,ioos:station:TCOON:031:1,2019-01-01T07:18:00Z,28.4073,-96.7122,9.2,1111122 
TCOON,ioos:station:TCOON:031:1,2019-01-01T07:24:00Z,28.4073,-96.7122,9.3,11111222 
TCOON,ioos:station:TCOON:031:1,2019-01-01T07:30:00Z,28.4073,-96.7122,9.0,11111222 
TCOON,ioos:station:TCOON:031:1,2019-01-01T07:36:00Z,28.4073,-96.7122,9.1,11111222 
TCOON,ioos:station:TCOON:031:1,2019-01-01T07:42:00Z,28.4073,-96.7122,9.3,11111222 
TCOON,ioos:station:TCOON:031:1,2019-01-01T07:48:00Z,28.4073,-96.7122,9.4,11111222 
TCOON,ioos:station:TCOON:031:1,2019-01-01T07:54:00Z,28.4073,-96.7122,9.5,11111222 
TCOON,ioos:station:TCOON:031:1,2019-01-01T08:00:00Z,28.4073,-96.7122,9.4,11111222 
TCOON,ioos:station:TCOON:031:1,2019-01-01T08:06:00Z,28.4073,-96.7122,9.3,11111222 
TCOON,ioos:station:TCOON:031:1,2019-01-01T08:12:00Z,28.4073,-96.7122,9.1,11111222 
TCOON,ioos:station:TCOON:031:1,2019-01-01T08:18:00Z,28.4073,-96.7122,9.1,1111122 
TCOON,ioos:station:TCOON:031:1,2019-01-01T08:24:00Z,28.4073,-96.7122,8.6,11111222 
TCOON,ioos:station:TCOON:031:1,2019-01-01T08:30:00Z,28.4073,-96.7122,8.5,11111222 
TCOON,ioos:station:TCOON:031:1,2019-01-01T08:36:00Z,28.4073,-96.7122,8.5,11111222 
TCOON,ioos:station:TCOON:031:1,2019-01-01T08:42:00Z,28.4073,-96.7122,8.4,11111222 
TCOON,ioos:station:TCOON:031:1,2019-01-01T08:54:00Z,28.4073,-96.7122,8.0,11111222 
TCOON,ioos:station:TCOON:031:1,2019-01-01T09:00:00Z,28.4073,-96.7122,7.9,11111222 
TCOON,ioos:station:TCOON:031:1,2019-01-01T09:06:00Z,28.4073,-96.7122,7.9,11111222 
TCOON,ioos:station:TCOON:031:1,2019-01-01T09:12:00Z,28.4073,-96.7122,7.6,11111222 
TCOON,ioos:station:TCOON:031:1,2019-01-01T09:18:00Z,28.4073,-96.7122,7.6,1111122 
TCOON,ioos:station:TCOON:031:1,2019-01-01T09:24:00Z,28.4073,-96.7122,7.6,11111222 
TCOON,ioos:station:TCOON:031:1,2019-01-01T09:30:00Z,28.4073,-96.7122,7.2,11111222 
TCOON,ioos:station:TCOON:031:1,2019-01-01T09:36:00Z,28.4073,-96.7122,7.1,11111222 
TCOON,ioos:station:TCOON:031:1,2019-01-01T09:42:00Z,28.4073,-96.7122,7.1,11111222 
TCOON,ioos:station:TCOON:031:1,2019-01-01T09:48:00Z,28.4073,-96.7122,6.9,11111222 
TCOON,ioos:station:TCOON:031:1,2019-01-01T09:54:00Z,28.4073,-96.7122,7.1,11111222 
TCOON,ioos:station:TCOON:031:1,2019-01-01T10:00:00Z,28.4073,-96.7122,7.0,11111222 
TCOON,ioos:station:TCOON:031:1,2019-01-01T10:06:00Z,28.4073,-96.7122,6.8,11111222 
TCOON,ioos:station:TCOON:031:1,2019-01-01T10:12:00Z,28.4073,-96.7122,6.8,11111222 
TCOON,ioos:station:TCOON:031:1,2019-01-01T10:18:00Z,28.4073,-96.7122,6.8,11111222 
TCOON,ioos:station:TCOON:031:1,2019-01-01T10:24:00Z,28.4073,-96.7122,6.8,1111122 
TCOON,ioos:station:TCOON:031:1,2019-01-01T10:30:00Z,28.4073,-96.7122,6.7,11111222 
TCOON,ioos:station:TCOON:031:1,2019-01-01T10:36:00Z,28.4073,-96.7122,6.6,11111222 
TCOON,ioos:station:TCOON:031:1,2019-01-01T10:42:00Z,28.4073,-96.7122,6.5,11111222 
TCOON,ioos:station:TCOON:031:1,2019-01-01T10:48:00Z,28.4073,-96.7122,6.4,11111222 
TCOON,ioos:station:TCOON:031:1,2019-01-01T10:54:00Z,28.4073,-96.7122,6.2,11111222 
TCOON,ioos:station:TCOON:031:1,2019-01-01T11:00:00Z,28.4073,-96.7122,6.2,11111222 
TCOON,ioos:station:TCOON:031:1,2019-01-01T11:06:00Z,28.4073,-96.7122,6.0,11111222 
TCOON,ioos:station:TCOON:031:1,2019-01-01T11:12:00Z,28.4073,-96.7122,6.0,11111222 
TCOON,ioos:station:TCOON:031:1,2019-01-01T11:18:00Z,28.4073,-96.7122,6.0,1111122 
TCOON,ioos:station:TCOON:031:1,2019-01-01T11:24:00Z,28.4073,-96.7122,5.9,11111222 
TCOON,ioos:station:TCOON:031:1,2019-01-01T11:30:00Z,28.4073,-96.7122,5.8,11111222 
TCOON,ioos:station:TCOON:031:1,2019-01-01T11:36:00Z,28.4073,-96.7122,5.8,11111222 
TCOON,ioos:station:TCOON:031:1,2019-01-01T11:42:00Z,28.4073,-96.7122,5.9,11111222 
TCOON,ioos:station:TCOON:031:1,2019-01-01T11:48:00Z,28.4073,-96.7122,5.9,11111222 
TCOON,ioos:station:TCOON:031:1,2019-01-01T11:54:00Z,28.4073,-96.7122,5.8,11111222 
TCOON,ioos:station:TCOON:031:1,2019-01-01T12:00:00Z,28.4073,-96.7122,5.8,11111222 
TCOON,ioos:station:TCOON:031:1,2019-01-01T12:06:00Z,28.4073,-96.7122,5.9,11111222 
TCOON,ioos:station:TCOON:031:1,2019-01-01T12:12:00Z,28.4073,-96.7122,6.2,11111222 
TCOON,ioos:station:TCOON:031:1,2019-01-01T12:18:00Z,28.4073,-96.7122,5.9,11111222 
TCOON,ioos:station:TCOON:031:1,2019-01-01T12:24:00Z,28.4073,-96.7122,5.9,1111122 
TCOON,ioos:station:TCOON:031:1,2019-01-01T12:30:00Z,28.4073,-96.7122,6.0,11111222 
TCOON,ioos:station:TCOON:031:1,2019-01-01T12:36:00Z,28.4073,-96.7122,5.9,11111222 
TCOON,ioos:station:TCOON:031:1,2019-01-01T12:42:00Z,28.4073,-96.7122,6.0,11111222 
TCOON,ioos:station:TCOON:031:1,2019-01-01T12:54:00Z,28.4073,-96.7122,6.1,11111222 
TCOON,ioos:station:TCOON:031:1,2019-01-01T13:00:00Z,28.4073,-96.7122,5.9,11111222 
TCOON,ioos:station:TCOON:031:1,2019-01-01T13:06:00Z,28.4073,-96.7122,5.8,11111222 
TCOON,ioos:station:TCOON:031:1,2019-01-01T13:12:00Z,28.4073,-96.7122,5.8,11111222 
TCOON,ioos:station:TCOON:031:1,2019-01-01T13:18:00Z,28.4073,-96.7122,5.9,11111222 
TCOON,ioos:station:TCOON:031:1,2019-01-01T13:24:00Z,28.4073,-96.7122,5.8,1111122 
TCOON,ioos:station:TCOON:031:1,2019-01-01T13:48:00Z,28.4073,-96.7122,6.5,11111222 
TCOON,ioos:station:TCOON:031:1,2019-01-01T13:54:00Z,28.4073,-96.7122,6.7,11111222 
TCOON,ioos:station:TCOON:031:1,2019-01-01T14:00:00Z,28.4073,-96.7122,6.8,11111222 
TCOON,ioos:station:TCOON:031:1,2019-01-01T14:06:00Z,28.4073,-96.7122,7.2,11111222 
TCOON,ioos:station:TCOON:031:1,2019-01-01T14:12:00Z,28.4073,-96.7122,7.3,11111222 
TCOON,ioos:station:TCOON:031:1,2019-01-01T14:18:00Z,28.4073,-96.7122,7.4,11111222 
TCOON,ioos:station:TCOON:031:1,2019-01-01T14:24:00Z,28.4073,-96.7122,7.4,1111122 
TCOON,ioos:station:TCOON:031:1,2019-01-01T14:30:00Z,28.4073,-96.7122,8.1,11111222 
TCOON,ioos:station:TCOON:031:1,2019-01-01T14:36:00Z,28.4073,-96.7122,8.4,11111222 
TCOON,ioos:station:TCOON:031:1,2019-01-01T14:42:00Z,28.4073,-96.7122,8.6,11111222 
TCOON,ioos:station:TCOON:031:1,2019-01-01T14:48:00Z,28.4073,-96.7122,8.8,11111222 
TCOON,ioos:station:TCOON:031:1,2019-01-01T14:54:00Z,28.4073,-96.7122,9.2,11111222 
TCOON,ioos:station:TCOON:031:1,2019-01-01T15:00:00Z,28.4073,-96.7122,9.6,11111222 
TCOON,ioos:station:TCOON:031:1,2019-01-01T15:06:00Z,28.4073,-96.7122,9.9,11111222 
TCOON,ioos:station:TCOON:031:1,2019-01-01T15:12:00Z,28.4073,-96.7122,10.1,11111222 
TCOON,ioos:station:TCOON:031:1,2019-01-01T15:18:00Z,28.4073,-96.7122,10.2,11111222 
TCOON,ioos:station:TCOON:031:1,2019-01-01T15:24:00Z,28.4073,-96.7122,10.2,1111122 
TCOON,ioos:station:TCOON:031:1,2019-01-01T15:30:00Z,28.4073,-96.7122,10.6,11111222 
TCOON,ioos:station:TCOON:031:1,2019-01-01T15:36:00Z,28.4073,-96.7122,11.0,11111222 
TCOON,ioos:station:TCOON:031:1,2019-01-01T15:42:00Z,28.4073,-96.7122,11.1,11111222 
TCOON,ioos:station:TCOON:031:1,2019-01-01T15:48:00Z,28.4073,-96.7122,11.2,11111222 
TCOON,ioos:station:TCOON:031:1,2019-01-01T15:54:00Z,28.4073,-96.7122,11.1,11111222 
TCOON,ioos:station:TCOON:031:1,2019-01-01T16:00:00Z,28.4073,-96.7122,11.3,11111222 
TCOON,ioos:station:TCOON:031:1,2019-01-01T16:06:00Z,28.4073,-96.7122,11.6,11111222 
TCOON,ioos:station:TCOON:031:1,2019-01-01T16:12:00Z,28.4073,-96.7122,11.7,11111222 
TCOON,ioos:station:TCOON:031:1,2019-01-01T16:24:00Z,28.4073,-96.7122,11.8,1111122 
TCOON,ioos:station:TCOON:031:1,2019-01-01T16:30:00Z,28.4073,-96.7122,12.3,11111222 
TCOON,ioos:station:TCOON:031:1,2019-01-01T16:36:00Z,28.4073,-96.7122,12.3,11111222 
TCOON,ioos:station:TCOON:031:1,2019-01-01T16:42:00Z,28.4073,-96.7122,12.8,11111222 
TCOON,ioos:station:TCOON:031:1,2019-01-01T16:48:00Z,28.4073,-96.7122,13.0,11111222 
TCOON,ioos:station:TCOON:031:1,2019-01-01T16:54:00Z,28.4073,-96.7122,12.9,11111222 
TCOON,ioos:station:TCOON:031:1,2019-01-01T17:00:00Z,28.4073,-96.7122,12.9,11111222 
TCOON,ioos:station:TCOON:031:1,2019-01-01T17:06:00Z,28.4073,-96.7122,13.0,11111222 
TCOON,ioos:station:TCOON:031:1,2019-01-01T17:12:00Z,28.4073,-96.7122,13.1,11111222 
TCOON,ioos:station:TCOON:031:1,2019-01-01T17:18:00Z,28.4073,-96.7122,13.1,11111222 
TCOON,ioos:station:TCOON:031:1,2019-01-01T17:24:00Z,28.4073,-96.7122,13.1,1111122 
TCOON,ioos:station:TCOON:031:1,2019-01-01T17:30:00Z,28.4073,-96.7122,13.4,11111222 
TCOON,ioos:station:TCOON:031:1,2019-01-01T17:36:00Z,28.4073,-96.7122,13.4,11111222 
TCOON,ioos:station:TCOON:031:1,2019-01-01T17:42:00Z,28.4073,-96.7122,13.4,11111222 
TCOON,ioos:station:TCOON:031:1,2019-01-01T17:48:00Z,28.4073,-96.7122,13.5,11111222 
TCOON,ioos:station:TCOON:031:1,2019-01-01T17:54:00Z,28.4073,-96.7122,13.6,11111222 
TCOON,ioos:station:TCOON:031:1,2019-01-01T18:00:00Z,28.4073,-96.7122,13.7,11111222 
TCOON,ioos:station:TCOON:031:1,2019-01-01T18:06:00Z,28.4073,-96.7122,13.8,11111222 
TCOON,ioos:station:TCOON:031:1,2019-01-01T18:12:00Z,28.4073,-96.7122,13.7,11111222 
TCOON,ioos:station:TCOON:031:1,2019-01-01T18:18:00Z,28.4073,-96.7122,13.7,11111222 
TCOON,ioos:station:TCOON:031:1,2019-01-01T18:24:00Z,28.4073,-96.7122,13.7,1111122 
TCOON,ioos:station:TCOON:031:1,2019-01-01T18:36:00Z,28.4073,-96.7122,13.8,11111222 
TCOON,ioos:station:TCOON:031:1,2019-01-01T18:42:00Z,28.4073,-96.7122,13.9,11111222 
TCOON,ioos:station:TCOON:031:1,2019-01-01T18:48:00Z,28.4073,-96.7122,14.3,11111222 
TCOON,ioos:station:TCOON:031:1,2019-01-01T18:54:00Z,28.4073,-96.7122,14.3,11111222 
TCOON,ioos:station:TCOON:031:1,2019-01-01T19:06:00Z,28.4073,-96.7122,14.4,11111222 
TCOON,ioos:station:TCOON:031:1,2019-01-01T19:12:00Z,28.4073,-96.7122,14.6,11111222 
TCOON,ioos:station:TCOON:031:1,2019-01-01T19:18:00Z,28.4073,-96.7122,14.7,11111222 
TCOON,ioos:station:TCOON:031:1,2019-01-01T19:24:00Z,28.4073,-96.7122,14.7,1111122 
TCOON,ioos:station:TCOON:031:1,2019-01-01T19:30:00Z,28.4073,-96.7122,14.8,11111222 
TCOON,ioos:station:TCOON:031:1,2019-01-01T19:36:00Z,28.4073,-96.7122,15.1,11111222 
TCOON,ioos:station:TCOON:031:1,2019-01-01T19:42:00Z,28.4073,-96.7122,15.2,11111222 
TCOON,ioos:station:TCOON:031:1,2019-01-01T19:48:00Z,28.4073,-96.7122,15.2,11111222 
TCOON,ioos:station:TCOON:031:1,2019-01-01T19:54:00Z,28.4073,-96.7122,15.3,11111222 
TCOON,ioos:station:TCOON:031:1,2019-01-01T20:06:00Z,28.4073,-96.7122,15.1,11111222 
TCOON,ioos:station:TCOON:031:1,2019-01-01T20:12:00Z,28.4073,-96.7122,15.6,11111222 
TCOON,ioos:station:TCOON:031:1,2019-01-01T20:18:00Z,28.4073,-96.7122,15.4,11111222 
TCOON,ioos:station:TCOON:031:1,2019-01-01T20:24:00Z,28.4073,-96.7122,15.4,1111122 
TCOON,ioos:station:TCOON:031:1,2019-01-01T20:30:00Z,28.4073,-96.7122,15.6,11111222 
TCOON,ioos:station:TCOON:031:1,2019-01-01T20:36:00Z,28.4073,-96.7122,15.8,11111222 
TCOON,ioos:station:TCOON:031:1,2019-01-01T20:42:00Z,28.4073,-96.7122,15.9,11111222 
TCOON,ioos:station:TCOON:031:1,2019-01-01T20:48:00Z,28.4073,-96.7122,15.8,11111222 
TCOON,ioos:station:TCOON:031:1,2019-01-01T20:54:00Z,28.4073,-96.7122,16.0,11111222 
TCOON,ioos:station:TCOON:031:1,2019-01-01T21:00:00Z,28.4073,-96.7122,15.9,11111222 
TCOON,ioos:station:TCOON:031:1,2019-01-01T21:06:00Z,28.4073,-96.7122,15.9,11111222 
TCOON,ioos:station:TCOON:031:1,2019-01-01T21:12:00Z,28.4073,-96.7122,15.8,11111222 
TCOON,ioos:station:TCOON:031:1,2019-01-01T21:18:00Z,28.4073,-96.7122,15.8,11111222 
TCOON,ioos:station:TCOON:031:1,2019-01-01T21:24:00Z,28.4073,-96.7122,15.8,1111122 
TCOON,ioos:station:TCOON:031:1,2019-01-01T21:30:00Z,28.4073,-96.7122,15.5,11111222 
TCOON,ioos:station:TCOON:031:1,2019-01-01T21:36:00Z,28.4073,-96.7122,15.5,11111222 
TCOON,ioos:station:TCOON:031:1,2019-01-01T21:42:00Z,28.4073,-96.7122,15.4,11111222 
TCOON,ioos:station:TCOON:031:1,2019-01-01T21:48:00Z,28.4073,-96.7122,15.4,11111222 
TCOON,ioos:station:TCOON:031:1,2019-01-01T21:54:00Z,28.4073,-96.7122,15.5,11111222 
TCOON,ioos:station:TCOON:031:1,2019-01-01T22:06:00Z,28.4073,-96.7122,15.4,11111222 
TCOON,ioos:station:TCOON:031:1,2019-01-01T22:12:00Z,28.4073,-96.7122,15.3,11111222 
TCOON,ioos:station:TCOON:031:1,2019-01-01T22:18:00Z,28.4073,-96.7122,15.2,11111222 
TCOON,ioos:station:TCOON:031:1,2019-01-01T22:24:00Z,28.4073,-96.7122,15.2,1111122 
TCOON,ioos:station:TCOON:031:1,2019-01-01T22:30:00Z,28.4073,-96.7122,15.2,11111222 
TCOON,ioos:station:TCOON:031:1,2019-01-01T22:36:00Z,28.4073,-96.7122,15.1,11111222 
TCOON,ioos:station:TCOON:031:1,2019-01-01T22:42:00Z,28.4073,-96.7122,15.0,11111222 
TCOON,ioos:station:TCOON:031:1,2019-01-01T22:48:00Z,28.4073,-96.7122,15.0,11111222 
TCOON,ioos:station:TCOON:031:1,2019-01-01T22:54:00Z,28.4073,-96.7122,14.9,11111222 
TCOON,ioos:station:TCOON:031:1,2019-01-01T23:00:00Z,28.4073,-96.7122,14.9,11111222 
TCOON,ioos:station:TCOON:031:1,2019-01-01T23:06:00Z,28.4073,-96.7122,14.8,11111222 
TCOON,ioos:station:TCOON:031:1,2019-01-01T23:12:00Z,28.4073,-96.7122,14.8,11111222 
TCOON,ioos:station:TCOON:031:1,2019-01-01T23:18:00Z,28.4073,-96.7122,14.8,1111122 
TCOON,ioos:station:TCOON:031:1,2019-01-01T23:24:00Z,28.4073,-96.7122,14.8,11111222 
TCOON,ioos:station:TCOON:031:1,2019-01-01T23:30:00Z,28.4073,-96.7122,14.7,11111222 
TCOON,ioos:station:TCOON:031:1,2019-01-01T23:36:00Z,28.4073,-96.7122,14.7,11111222 
TCOON,ioos:station:TCOON:031:1,2019-01-01T23:42:00Z,28.4073,-96.7122,14.6,11111222 
TCOON,ioos:station:TCOON:031:1,2019-01-01T23:48:00Z,28.4073,-96.7122,14.5,11111222 
TCOON,ioos:station:TCOON:031:1,2019-01-01T23:54:00Z,28.4073,-96.7122,14.4,11111222 
TCOON,ioos:station:TCOON:031:1,2019-01-02T00:00:00Z,28.4073,-96.7122,14.4,11111222 
TCOON,ioos:station:TCOON:031:1,2019-01-02T00:06:00Z,28.4073,-96.7122,14.3,11111222 
TCOON,ioos:station:TCOON:031:1,2019-01-02T00:12:00Z,28.4073,-96.7122,14.3,11111222 
TCOON,ioos:station:TCOON:031:1,2019-01-02T00:18:00Z,28.4073,-96.7122,14.3,1111122 
TCOON,ioos:station:TCOON:031:1,2019-01-02T00:24:00Z,28.4073,-96.7122,13.8,11111222 
TCOON,ioos:station:TCOON:031:1,2019-01-02T00:30:00Z,28.4073,-96.7122,13.6,11111222 
TCOON,ioos:station:TCOON:031:1,2019-01-02T00:36:00Z,28.4073,-96.7122,13.5,11111222 
TCOON,ioos:station:TCOON:031:1,2019-01-02T00:42:00Z,28.4073,-96.7122,13.4,11111222 
TCOON,ioos:station:TCOON:031:1,2019-01-02T00:54:00Z,28.4073,-96.7122,13.1,11111222 
TCOON,ioos:station:TCOON:031:1,2019-01-02T01:00:00Z,28.4073,-96.7122,13.0,11111222 
TCOON,ioos:station:TCOON:031:1,2019-01-02T01:06:00Z,28.4073,-96.7122,12.9,11111222 
TCOON,ioos:station:TCOON:031:1,2019-01-02T01:12:00Z,28.4073,-96.7122,12.8,11111222 
TCOON,ioos:station:TCOON:031:1,2019-01-02T01:18:00Z,28.4073,-96.7122,12.8,1111122 
TCOON,ioos:station:TCOON:031:1,2019-01-02T01:24:00Z,28.4073,-96.7122,12.7,11111222 
TCOON,ioos:station:TCOON:031:1,2019-01-02T01:30:00Z,28.4073,-96.7122,12.6,11111222 
TCOON,ioos:station:TCOON:031:1,2019-01-02T01:36:00Z,28.4073,-96.7122,12.6,11111222 
TCOON,ioos:station:TCOON:031:1,2019-01-02T01:42:00Z,28.4073,-96.7122,12.6,11111222 
TCOON,ioos:station:TCOON:031:1,2019-01-02T01:48:00Z,28.4073,-96.7122,12.4,11111222 
TCOON,ioos:station:TCOON:031:1,2019-01-02T01:54:00Z,28.4073,-96.7122,12.2,11111222 
TCOON,ioos:station:TCOON:031:1,2019-01-02T02:00:00Z,28.4073,-96.7122,12.1,11111222 
TCOON,ioos:station:TCOON:031:1,2019-01-02T02:06:00Z,28.4073,-96.7122,11.9,11111222 
TCOON,ioos:station:TCOON:031:1,2019-01-02T02:12:00Z,28.4073,-96.7122,11.7,11111222 
TCOON,ioos:station:TCOON:031:1,2019-01-02T02:18:00Z,28.4073,-96.7122,11.7,1111122 
TCOON,ioos:station:TCOON:031:1,2019-01-02T02:24:00Z,28.4073,-96.7122,11.5,11111222 
TCOON,ioos:station:TCOON:031:1,2019-01-02T02:30:00Z,28.4073,-96.7122,11.4,11111222 
TCOON,ioos:station:TCOON:031:1,2019-01-02T02:36:00Z,28.4073,-96.7122,11.3,11111222 
TCOON,ioos:station:TCOON:031:1,2019-01-02T02:42:00Z,28.4073,-96.7122,11.2,11111222 
TCOON,ioos:station:TCOON:031:1,2019-01-02T02:48:00Z,28.4073,-96.7122,11.2,11111222 
TCOON,ioos:station:TCOON:031:1,2019-01-02T02:54:00Z,28.4073,-96.7122,11.2,11111222 
TCOON,ioos:station:TCOON:031:1,2019-01-02T03:06:00Z,28.4073,-96.7122,11.1,11111222 
TCOON,ioos:station:TCOON:031:1,2019-01-02T03:12:00Z,28.4073,-96.7122,11.0,11111222 
TCOON,ioos:station:TCOON:031:1,2019-01-02T03:18:00Z,28.4073,-96.7122,11.0,1111122 
TCOON,ioos:station:TCOON:031:1,2019-01-02T03:24:00Z,28.4073,-96.7122,10.9,11111222 
TCOON,ioos:station:TCOON:031:1,2019-01-02T03:30:00Z,28.4073,-96.7122,10.8,11111222 
TCOON,ioos:station:TCOON:031:1,2019-01-02T03:36:00Z,28.4073,-96.7122,10.9,11111222 
TCOON,ioos:station:TCOON:031:1,2019-01-02T03:42:00Z,28.4073,-96.7122,11.0,11111222 
TCOON,ioos:station:TCOON:031:1,2019-01-02T03:54:00Z,28.4073,-96.7122,11.1,11111222 
TCOON,ioos:station:TCOON:031:1,2019-01-02T04:00:00Z,28.4073,-96.7122,11.1,11111222 
TCOON,ioos:station:TCOON:031:1,2019-01-02T04:06:00Z,28.4073,-96.7122,11.1,11111222 
TCOON,ioos:station:TCOON:031:1,2019-01-02T04:12:00Z,28.4073,-96.7122,11.1,11111222 
TCOON,ioos:station:TCOON:031:1,2019-01-02T04:18:00Z,28.4073,-96.7122,11.0,11111222 
TCOON,ioos:station:TCOON:031:1,2019-01-02T04:24:00Z,28.4073,-96.7122,11.0,1111122 
TCOON,ioos:station:TCOON:031:1,2019-01-02T04:30:00Z,28.4073,-96.7122,10.8,11111222 
TCOON,ioos:station:TCOON:031:1,2019-01-02T04:36:00Z,28.4073,-96.7122,10.7,11111222 
TCOON,ioos:station:TCOON:031:1,2019-01-02T04:42:00Z,28.4073,-96.7122,10.3,11111222 
TCOON,ioos:station:TCOON:031:1,2019-01-02T04:48:00Z,28.4073,-96.7122,10.2,11111222 
TCOON,ioos:station:TCOON:031:1,2019-01-02T04:54:00Z,28.4073,-96.7122,10.1,11111222 
TCOON,ioos:station:TCOON:031:1,2019-01-02T05:00:00Z,28.4073,-96.7122,10.0,11111222 
TCOON,ioos:station:TCOON:031:1,2019-01-02T05:06:00Z,28.4073,-96.7122,9.8,11111222 
TCOON,ioos:station:TCOON:031:1,2019-01-02T05:12:00Z,28.4073,-96.7122,9.7,11111222 
TCOON,ioos:station:TCOON:031:1,2019-01-02T05:18:00Z,28.4073,-96.7122,9.7,1111122 
TCOON,ioos:station:TCOON:031:1,2019-01-02T05:24:00Z,28.4073,-96.7122,9.8,11111222 
TCOON,ioos:station:TCOON:031:1,2019-01-02T05:30:00Z,28.4073,-96.7122,9.9,11111222 
TCOON,ioos:station:TCOON:031:1,2019-01-02T05:36:00Z,28.4073,-96.7122,9.9,11111222 
TCOON,ioos:station:TCOON:031:1,2019-01-02T05:42:00Z,28.4073,-96.7122,9.9,11111222 
TCOON,ioos:station:TCOON:031:1,2019-01-02T05:48:00Z,28.4073,-96.7122,9.8,11111222 
TCOON,ioos:station:TCOON:031:1,2019-01-02T05:54:00Z,28.4073,-96.7122,9.7,11111222 
TCOON,ioos:station:TCOON:031:1,2019-01-02T06:00:00Z,28.4073,-96.7122,9.8,11111222 
TCOON,ioos:station:TCOON:031:1,2019-01-02T06:06:00Z,28.4073,-96.7122,9.9,11111222 
TCOON,ioos:station:TCOON:031:1,2019-01-02T06:12:00Z,28.4073,-96.7122,10.0,11111222 